[Iaude] MPEC D52: 2024 DJ [a=1.21,e=0.54,i=20.9,H=25.1]

mpec at cfa.harvard.edu mpec at cfa.harvard.edu
Sun Feb 18 10:59:27 EST 2024


M.P.E.C. 2024-D52                             Issued 2024 February 18, 15:57 UT

     The Minor Planet Electronic Circulars contain information on unusual
         minor planets, routine data on comets and natural satellites,
         and occasional editorial announcements.  They are published
    on behalf of Division F of the International Astronomical Union by the
          Minor Planet Center, Smithsonian Astrophysical Observatory,
                          Cambridge, MA 02138, U.S.A.
			  
             Prepared using the Tamkin Foundation Computer Network

                              MPC at CFA.HARVARD.EDU
            URL https://www.minorplanetcenter.net/    ISSN 1523-6714

                                    2024 DJ                                     


Observations:
     K24D00J* C2024 02 17.10148111 54 00.42 +19 36 42.3          20.0 RoED052K88
     K24D00J  C2024 02 17.10447911 53 54.48 +19 36 05.9          20.2 RoED052K88
     K24D00J  C2024 02 17.10748311 53 48.77 +19 35 30.7          20.1 RoED052K88
     K24D00J KC2024 02 17.14305811 52 39.91 +19 28 21.4          20.4 RoED052K88
     K24D00J KC2024 02 17.14532011 52 35.59 +19 27 54.7          20.3 RoED052K88
     K24D00J KC2024 02 17.14758211 52 31.18 +19 27 27.3          20.4 RoED052K88
     K24D00J KC2024 02 17.15300611 52 20.77 +19 26 21.8          20.2 RoED052K88
     K24D00J KC2024 02 17.15672811 52 13.65 +19 25 37.7          20.4 RoED052K88
     K24D00J KC2024 02 17.16149911 52 04.45 +19 24 39.7          20.3 RoED052K88
     K24D00J KC2024 02 17.16611511 51 55.61 +19 23 44.0          20.3 RoED052K88
     K24D00J KC2024 02 17.21471511 50 33.78 +19 14 24.8          20.2 GVED052H21
     K24D00J KC2024 02 17.21568011 50 31.97 +19 14 14.1          20.3 GVED052H21
     K24D00J KC2024 02 17.21761011 50 28.36 +19 13 51.7          20.4 GVED052H21
     K24D00J KC2024 02 17.21954011 50 24.69 +19 13 29.0          20.8 GVED052H21
     K24D00J KC2024 02 17.22669611 50 13.495+19 12 09.04         20.45GVED052I52
     K24D00J KC2024 02 17.22827111 50 10.475+19 11 49.92         20.05GVED052I52
     K24D00J KC2024 02 17.22985211 50 07.534+19 11 32.68         20.74GVED052I52
     K24D00J KC2024 02 17.41265211 44 25.516+18 35 56.29         20.56GVED052I52
     K24D00J KC2024 02 17.41541611 44 20.425+18 35 23.71         20.59GVED052I52
     K24D00J KC2024 02 17.41817711 44 15.342+18 34 51.31         20.55GVED052I52
     K24D00J KC2024 02 17.42094511 44 10.244+18 34 18.84         20.53GVED052I52
     K24D00J KC2024 02 17.92548711 29 57.98 +16 57 34.8          19.3 GXED052958
     K24D00J KC2024 02 17.93357211 29 44.76 +16 56 05.0          19.2 GXED052958
     K24D00J KB2024 02 17.93523211 29 42.19 +16 55 46.9          19.8 GXED052958
     K24D00J KC2024 02 17.94160211 29 31.65 +16 54 37.7          19.4 GXED052958
     K24D00J KB2024 02 17.94180511 29 31.40 +16 54 34.5          20.1 GXED052958
     K24D00J KB2024 02 17.94800411 29 21.25 +16 53 26.2          19.6 GXED052958
     K24D00J KB2024 02 17.95967411 29 01.21 +16 51 16.2          20.0 GVED052204
     K24D00J KB2024 02 17.97529611 28 35.66 +16 48 24.1                VED052204
     K24D00J KB2024 02 17.97777 11 28 29.95 +16 47 58.3          20.0 GXED052M45
     K24D00J KB2024 02 17.98569 11 28 17.02 +16 46 30.9          20.1 GXED052M45
     K24D00J KB2024 02 17.99112311 28 09.87 +16 45 28.8          20.3 GVED052204
     K24D00J KB2024 02 18.00125611 27 54.31 +16 43 38.2          20.1 GXED052I93
     K24D00J KB2024 02 18.02129811 27 21.82 +16 39 58.2          20.1 GXED052I93
     K24D00J |C2024 02 18.19131011 22 58.820+16 11 19.80         20.6 GVED052807
     K24D00J |C2024 02 18.19535011 22 52.450+16 10 36.30         20.5 GVED052807
     K24D00J |C2024 02 18.19945011 22 46.040+16 09 52.20         20.2 GVED052807
     K24D00J |C2024 02 18.20340011 22 39.850+16 09 09.40         20.4 GVED052807
     K24D00J KC2024 02 18.20917911 22 32.22 +16 05 49.9          20.3 GVED052H21
     K24D00J KC2024 02 18.21197511 22 27.90 +16 05 20.1          20.2 GVED052H21
     K24D00J KC2024 02 18.21365211 22 25.29 +16 05 02.1          20.3 GVED052H21
     K24D00J KC2024 02 18.22315711 22 10.49 +16 03 19.8          21.3 GVED052H21

Observer details:
204 Schiaparelli Observatory.  Observers L. Buzzi, G. Galli.  0.84-m f/3.5
    reflector + CMO.
807 Cerro Tololo Observatory, La Serena.  Observers T. Linder, R. Holmes.
    0.61-m f/11 Ritchey-Chretien + CCD.
958 Observatoire de Dax.  Observers P. Dupouy, J. B. de Vanssay.  Measurer P.
    Dupouy.  0.43-m f/2.7 Reflector + CCD, 0.50-m f/4.5 Reflector + CMO.
H21 Astronomical Research Observatory, Westfield.  Observer R. Holmes.
    Measurers T. Linder, R. Holmes, L. Horn.  0.76-m f/3.0 astrograph + CCD.
I52 Steward Observatory, Mt. Lemmon Station.  Observer J. B. Fazekas.
    Measurers E. C. Beshore, D. Fay, J. B. Fazekas, D. C. Fuls, A. R. Gibbs,
    A. D. Grauer, H. Groeller, J. K. Hogan, R. A. Kowalski, S. M. Larson, G.
    J. Leonard, D. Rankin, R. L. Seaman, F. C. Shelly, K. W. Wierzchos.  1.0-m
    prime focus + CCD.
I93 St Pardon de Conques.  Observer F. Losse.  0.40-m f/3.7 reflector + CCD.
K88 GINOP-KHK, Piszkesteto.  Observer K. Sarneczky.  0.60-m Schmidt + CCD.
M45 Starhopper Observatory, Sfantu Gheorghe.  Observer F. Ursache.  0.41-m
    f/7.5 reflector + CMO.

Orbital elements:
2024 DJ                                                  Earth MOID = 0.0455 AU
Epoch 2024 Mar. 31.0 TT = JDT 2460400.5                 Veres                   
M  77.05817              (2000.0)            P               Q                  
n   0.73897894     Peri.   67.08233     +0.75002603     -0.63959915             
a   1.2116616      Node   331.78489     +0.39633511     +0.63850646             
e   0.5437075      Incl.   20.87221     +0.52950868     +0.42804489             
P   1.33           H   25.15          G   0.15           U   8                  
Residuals in seconds of arc
240217 K88  0.4+  0.8+    240217 I52  0.4+  0.1+    240217 204  0.1-  0.4+
240217 K88  1.0-  0.4+    240217 I52  0.3-  0.7-    240217 M45  0.3+  0.0
240217 K88  0.9+  1.2+    240217 I52  0.3+  0.5+    240217 M45  0.4+  0.3+
240217 K88  0.5+  0.4-    240217 I52  0.0   0.1-    240217 204  0.2+  0.2-
240217 K88  1.0+  0.1+    240217 I52  0.0   0.3-    240218 I93  0.2+  0.2-
240217 K88  0.2+  0.1-    240217 I52  0.0   0.3-    240218 I93  0.6+  0.3+
240217 K88  0.3+  0.3-    240217 I52  0.0   0.3-    240218 807  0.5+  0.2+
240217 K88  0.6+  0.4+    240217 958  1.9-  0.6+    240218 807  0.0   0.2+
240217 K88  0.2-  0.2-    240217 958  1.5-  0.1-    240218 807  0.3+  0.2+
240217 K88  0.2-  0.4-    240217 958  0.6+  0.1+    240218 807  0.3+  0.1-
240217 H21 (0.5-  0.7-)   240217 958  1.0-  1.1+    240218 H21  0.3-  0.2-
240217 H21  0.1-  0.1-    240217 958  0.2+  0.1+    240218 H21  0.0   0.0
240217 H21 (0.7+  0.2+)   240217 958  0.1+  0.1+    240218 H21  0.0   0.0
240217 H21 (0.8+  0.1+)   240217 204  0.2+  0.1+    240218 H21 (0.5-  0.5-)

Ephemeris:
2024 DJ                  a,e,i = 1.21, 0.54, 21                  q = 0.5529
Date    TT    R. A. (2000) Decl.     Delta      r    Elong.  Phase     V
2024 01 19    19 43 18.5 +12 33 19   0.2917  0.7574    33.4   134.4    28.0
...
2024 02 03    18 42 19.2 +21 02 46   0.1327  0.9084    51.2   122.2    25.6
...
2024 02 11    16 14 06.6 +30 00 10   0.06722 0.9879    89.0    87.1    22.3
...
2024 02 17    11 57 20.3 +19 58 10   0.06603 1.0460   150.6    27.7    20.6
2024 02 18    11 27 55.0 +16 45 00   0.07185 1.0555   158.8    19.8    20.5
2024 02 19    11 04 01.2 +13 51 20   0.07879 1.0649   165.8    13.2    20.5
...
2024 02 25    09 48 16.0 +03 27 16   0.1334  1.1205   168.1    10.5    21.7
...
2024 03 04    09 14 44.7 -01 28 15   0.2201  1.1915   152.7    22.4    23.3
...
2024 03 19    09 00 14.7 -04 07 42   0.4007  1.3143   136.2    31.6    25.1

M. P. C. Staff               (C) Copyright 2024 MPC           M.P.E.C. 2024-D52





More information about the Iaude mailing list